OBJECT TP

Last updated on Thu Jul 07 2022 00:02:05 GMT+0000 (Coordinated Universal Time)

1 52952U 98067TP 22187.14708027 .00030013 00000+0 52108-3 0 9997 2 52952 51.6438 242.6726 0006255 324.0229 77.2471 15.50564955 509
UTC large
Height (km)
Speed (km/s)
/
Latitude / Longitude
Inclination (degrees)
Orbital Period (minutes)
Azimuth
Elevation
Range (km)
Doppler Factor

Next 0 passes for location: London (51.5072 / 0.1276)

Sorry there are no passes over London.